Weather History for San Antonio, TX

Change the Weather History Date:

Wednesday, October 19, 2011

  Actual Average Record
Temperature  
Mean Temperature 61 °F 70 °F  
Max Temperature 76 °F 82 °F 92 °F (1979)
Min Temperature 46 °F 59 °F 38 °F (1989)
Degree Days  
Heating Degree Days 4 1  
Month to date heating degree days 6 8  
Since 1 July heating degree days 6 10  
Cooling Degree Days 0 6  
Month to date cooling degree days 172 157  
Year to date cooling degree days 3830 2991  
Growing Degree Days 12 (Base 50)    
Moisture  
Dew Point 33 °F    
Average Humidity 41    
Maximum Humidity 63    
Minimum Humidity 18    
Precipitation  
Precipitation 0.00 in 0.16 in 1.76 in (1985)
Month to date precipitation 3.28 2.60  
Year to date precipitation 12.93 26.57  
Snow  
Snow 0.00 in - - ()
Month to date snowfall 0.0  
Since 1 July snowfall 0.0  
Since 1 September snowfall 0.0  
Snow Depth 0.00 in    
Sea Level Pressure  
Sea Level Pressure 30.10 in    
Wind  
Wind Speed 8 mph (NW)    
Max Wind Speed 35 mph    
Max Gust Speed 30 mph    
Visibility 10 miles    
Events      
T = Trace of Precipitation, MM = Missing Value Source: NWS Daily Summary

Daily Weather History Graph

Daily Weather History Graph

Search for Another Location

Airport:

Trip Planner

Search our weather history database for the weather conditions in past years. The results will help you decide how hot, cold, wet, or windy it might be!

Date:

Astronomy

Oct. 19, 2011 Rise Set
Actual Time 7:37 AM CDT 6:59 PM CDT
Civil Twilight 7:13 AM CDT 7:23 PM CDT
Nautical Twilight 6:45 AM CDT 7:51 PM CDT
Astronomical Twilight 6:18 AM CDT 8:18 PM CDT
Moon No Moon Rise 1:57 PM CDT (10/19)
Length of Visible Light 12h 09m
Length of Day
11h 21m
Waning Gibbous, 54% of the Moon is Illuminated
Oct 19
Waning Gibbous
Oct 19
Last Quarter
Oct 26
New
Nov 2
First Quarter
Nov 10
Full

Hourly Weather History & Observations

Time (CDT) Temp. Dew Point Humidity Pressure Visibility Wind Dir Wind Speed Gust Speed Precip Events Conditions
12:53 AM 52.0 °F 39.0 °F 61% 30.11 in 10.0 mi WNW 6.9 mph - N/A   Clear
1:53 AM 53.6 °F 35.6 °F 51% 30.15 in 10.0 mi NW 6.9 mph - N/A   Clear
2:53 AM 50.0 °F 35.1 °F 57% 30.12 in 10.0 mi WNW 4.6 mph - N/A   Clear
3:53 AM 48.0 °F 35.1 °F 61% 30.12 in 10.0 mi WNW 5.8 mph - N/A   Clear
4:53 AM 48.0 °F 36.0 °F 63% 30.12 in 10.0 mi WNW 6.9 mph - N/A   Clear
5:53 AM 48.0 °F 36.0 °F 63% 30.13 in 10.0 mi NW 6.9 mph - N/A   Clear
6:53 AM 48.9 °F 34.0 °F 56% 30.15 in 10.0 mi NNW 6.9 mph - N/A   Clear
7:53 AM 48.9 °F 34.0 °F 56% 30.17 in 10.0 mi NW 6.9 mph - N/A   Clear
8:53 AM 55.0 °F 35.1 °F 47% 30.18 in 10.0 mi NW 10.4 mph - N/A   Clear
9:53 AM 61.0 °F 34.0 °F 36% 30.19 in 10.0 mi NNW 11.5 mph - N/A   Clear
10:53 AM 64.9 °F 30.0 °F 27% 30.19 in 10.0 mi NW 15.0 mph 20.7 mph N/A   Clear
11:53 AM 68.0 °F 30.0 °F 24% 30.18 in 10.0 mi NNW 13.8 mph 23.0 mph N/A   Clear
12:53 PM 70.0 °F 30.0 °F 23% 30.15 in 10.0 mi NNW 10.4 mph 19.6 mph N/A   Clear
1:53 PM 73.0 °F 30.0 °F 20% 30.11 in 10.0 mi NNW 13.8 mph 32.2 mph N/A   Clear
2:53 PM 73.9 °F 28.0 °F 18% 30.07 in 10.0 mi NNW 15.0 mph 23.0 mph N/A   Clear
3:53 PM 75.0 °F 28.9 °F 18% 30.04 in 10.0 mi NW 10.4 mph 17.3 mph N/A   Clear
4:53 PM 75.9 °F 28.0 °F 17% 30.03 in 10.0 mi NNW 6.9 mph - N/A   Clear
5:53 PM 75.0 °F 28.0 °F 18% 30.02 in 10.0 mi NW 12.7 mph - N/A   Clear
6:26 PM 73.4 °F 28.4 °F 19% 30.06 in 10.0 mi North - - N/A   Clear
6:34 PM 73.4 °F 28.4 °F 19% 30.06 in 10.0 mi NNW 8.1 mph - N/A   Clear
6:53 PM 70.0 °F 28.9 °F 22% 30.03 in 10.0 mi NNW 5.8 mph - N/A   Clear
7:53 PM 66.9 °F 32.0 °F 27% 30.04 in 10.0 mi Calm Calm - N/A   Clear
8:53 PM 60.1 °F 37.9 °F 44% 30.06 in 10.0 mi WNW 4.6 mph - N/A   Clear
9:53 PM 60.1 °F 37.0 °F 42% 30.06 in 10.0 mi WNW 4.6 mph - N/A   Clear
10:53 PM 55.0 °F 36.0 °F 49% 30.06 in 10.0 mi WNW 5.8 mph - N/A   Clear
11:53 PM 53.1 °F 37.0 °F 55% 30.06 in 10.0 mi WNW 5.8 mph - N/A   Clear